Marina Di Campo Airport

Jump to: basic info | weather | frequencies | runways | comments

Related pages: nearby airports | nearby navaids | notams | map

Basic information (top)

Codes: EBA LIRJ
Location: lon 42.760300, lat 10.239400, elev 31 ft / 9 m msl
Status: medium_airport

Weather (top)

Current conditions for Bastia-Poretta Airport 36nm (66km) WSW (rec'd 2015/04/26 15:00Z):

LFKB 261500Z 16011KT 9999 SCT009 BKN018 17/15 Q1011 NOSIG

Airport forecast for Bastia-Poretta Airport 36nm (66km) WSW (rec'd 2015/04/26 12:00Z):

TAF LFKB 261100Z 2612/2712 14010KT 9999 FEW015 BKN030 BKN100 
      BECMG 2612/2614 14015G25KT 
      BECMG 2618/2620 14006KT 
      BECMG 2709/2711 14018KT 8000 SHRA FEW020TCU BKN030 
      TEMPO 2612/2709 BKN020 TX19/2612Z TN12/2704Z

Frequencies (top)

Verify before use: may be inaccurate or out of date.

AFIS: 123.7 MHz (AFIS)

Runways (top)

16/34: 3,114 x 75 ft (949 x 23 m) — paved — not lighted — threshold 16 displaced 479 ft (146 m) — threshold 34 displaced 285 ft (87 m)

Latest comments (top)

No comments yet for Marina Di Campo Airport

More... (top)

See also NOTAMs and nearby airports and navaids, or visit the Marina Di Campo Airport page at the main OurAirports website..